| time (UTC) | temp F | wind direction | speed knots | gust knots | rain 1hr in | rain 24hr in | rain mn in | humidity % | barometer mb |
| 20260508023558 | 45 | 50 | 0.0 | 3.5 | 0.00 | 0.00 | 0.00 | 83 | 1020.1 |
| 20260508023059 | 45 | 53 | 0.9 | 5.2 | 0.00 | 0.00 | 0.00 | 83 | 1020.0 |
| 20260508022601 | 45 | 61 | 0.9 | 5.2 | 0.00 | 0.00 | 0.00 | 83 | 1019.9 |
| 20260508022059 | 45 | 38 | 1.7 | 4.3 | 0.00 | 0.00 | 0.00 | 83 | 1019.9 |
| 20260508021559 | 45 | 41 | 0.9 | 5.2 | 0.00 | 0.00 | 0.00 | 83 | 1019.9 |
| 20260508021101 | 45 | 34 | 1.7 | 5.2 | 0.00 | 0.00 | 0.00 | 83 | 1019.8 |
| 20260508020604 | 45 | 68 | 0.9 | 4.3 | 0.00 | 0.00 | 0.00 | 83 | 1019.8 |
| 20260508020059 | 45 | 24 | 0.0 | 4.3 | 0.00 | 0.00 | 0.00 | 82 | 1019.9 |
| 20260508015559 | 45 | 326 | 0.0 | 5.2 | 0.00 | 0.00 | 0.00 | 82 | 1019.8 |
| 20260508015059 | 45 | 13 | 1.7 | 5.2 | 0.00 | 0.00 | 0.00 | 82 | 1019.9 |
| 20260508015002 | 45 | 50 | 1.7 | 5.2 | 0.00 | 0.00 | 0.00 | 82 | 1019.9 |
| 20260508014558 | 45 | 59 | 0.0 | 4.3 | 0.00 | 0.00 | 0.00 | 82 | 1019.9 |
| 20260508014059 | 45 | 331 | 2.6 | 4.3 | 0.00 | 0.00 | 0.00 | 82 | 1019.8 |
| 20260508013559 | 45 | 59 | 0.0 | 4.3 | 0.00 | 0.00 | 0.00 | 82 | 1019.9 |
| 20260508013106 | 45 | 50 | 1.7 | 4.3 | 0.00 | 0.00 | 0.00 | 82 | 1019.8 |
| 20260508012559 | 45 | 11 | 0.9 | 3.5 | 0.00 | 0.00 | 0.00 | 82 | 1019.9 |
| 20260508012100 | 45 | 42 | 0.9 | 3.5 | 0.00 | 0.00 | 0.00 | 82 | 1019.9 |
| 20260508011558 | 45 | 322 | 0.9 | 6.1 | 0.00 | 0.00 | 0.00 | 82 | 1019.9 |
| 20260508011058 | 45 | 321 | 2.6 | 6.1 | 0.00 | 0.00 | 0.00 | 81 | 1019.9 |
| 20260508010558 | 45 | 329 | 0.9 | 3.5 | 0.00 | 0.00 | 0.00 | 81 | 1019.9 |
| 20260508010059 | 45 | 38 | 0.9 | 4.3 | 0.00 | 0.00 | 0.00 | 81 | 1019.8 |
| 20260508010001 | 45 | 59 | 1.7 | 4.3 | 0.00 | 0.00 | 0.00 | 81 | 1019.8 |
| 20260508005559 | 46 | 65 | 0.0 | 3.5 | 0.00 | 0.00 | 0.00 | 81 | 1019.8 |
| 20260508005101 | 46 | 18 | 1.7 | 3.5 | 0.00 | 0.00 | 0.00 | 81 | 1019.8 |
| 20260508004602 | 46 | 323 | 0.0 | 4.3 | 0.00 | 0.00 | 0.00 | 81 | 1019.8 |
| 20260508004058 | 46 | 69 | 0.9 | 4.3 | 0.00 | 0.00 | 0.00 | 81 | 1019.7 |
| 20260508003603 | 46 | 23 | 1.7 | 4.3 | 0.00 | 0.00 | 0.00 | 81 | 1019.7 |
| 20260508003059 | 46 | 296 | 0.0 | 3.5 | 0.00 | 0.00 | 0.00 | 81 | 1019.7 |
| 20260508002559 | 46 | 326 | 0.9 | 3.5 | 0.00 | 0.00 | 0.00 | 81 | 1019.7 |
| 20260508002058 | 46 | 66 | 0.0 | 3.5 | 0.00 | 0.00 | 0.00 | 81 | 1019.8 |
| 20260508001558 | 46 | 62 | 0.9 | 4.3 | 0.00 | 0.00 | 0.00 | 80 | 1019.8 |
| 20260508001058 | 46 | 51 | 0.0 | 4.3 | 0.00 | 0.00 | 0.00 | 80 | 1019.8 |
| 20260508000558 | 46 | 51 | 0.9 | 3.5 | 0.00 | 0.00 | 0.00 | 80 | 1019.8 |
| 20260508000058 | 46 | 62 | 0.9 | 4.3 | 0.00 | 0.00 | 0.00 | 80 | 1019.8 |
| 20260507235559 | 46 | 57 | 0.9 | 5.2 | 0.00 | 0.00 | 0.00 | 80 | 1019.9 |
| 20260507235100 | 46 | 59 | 0.9 | 5.2 | 0.00 | 0.00 | 0.00 | 80 | 1019.8 |
| 20260507234600 | 46 | 350 | 0.9 | 4.3 | 0.00 | 0.00 | 0.00 | 80 | 1019.8 |
| 20260507234059 | 46 | 55 | 0.9 | 4.3 | 0.00 | 0.00 | 0.00 | 79 | 1019.8 |
| 20260507233558 | 46 | 83 | 0.0 | 3.5 | 0.00 | 0.00 | 0.00 | 79 | 1019.8 |
| 20260507233059 | 46 | 313 | 0.0 | 5.2 | 0.00 | 0.00 | 0.00 | 79 | 1019.8 |
| 20260507232603 | 46 | 13 | 1.7 | 5.2 | 0.00 | 0.00 | 0.00 | 79 | 1019.7 |
| 20260507232058 | 46 | 38 | 2.6 | 4.3 | 0.00 | 0.00 | 0.00 | 79 | 1019.8 |
| 20260507231559 | 46 | 10 | 0.9 | 3.5 | 0.00 | 0.00 | 0.00 | 79 | 1019.7 |
| 20260507231101 | 46 | 55 | 0.0 | 6.1 | 0.00 | 0.00 | 0.00 | 78 | 1019.8 |
| 20260507230559 | 46 | 29 | 1.7 | 8.7 | 0.00 | 0.00 | 0.00 | 78 | 1019.7 |
| 20260507230108 | 46 | 53 | 2.6 | 8.7 | 0.00 | 0.00 | 0.00 | 78 | 1019.8 |
| 20260507225559 | 46 | 57 | 0.9 | 4.3 | 0.00 | 0.00 | 0.00 | 78 | 1019.8 |
| 20260507225101 | 46 | 98 | 0.9 | 5.2 | 0.00 | 0.00 | 0.00 | 78 | 1019.8 |
| 20260507224600 | 46 | 55 | 1.7 | 6.1 | 0.00 | 0.00 | 0.00 | 78 | 1019.8 |
| 20260507224057 | 46 | 55 | 1.7 | 7.8 | 0.00 | 0.00 | 0.00 | 78 | 1019.7 |
| 20260507223601 | 46 | 57 | 1.7 | 7.0 | 0.00 | 0.00 | 0.00 | 78 | 1019.8 |
| 20260507223058 | 46 | 313 | 0.9 | 5.2 | 0.00 | 0.00 | 0.00 | 78 | 1019.8 |
| 20260507222601 | 46 | 68 | 1.7 | 7.0 | 0.00 | 0.00 | 0.00 | 78 | 1019.7 |
| 20260507222058 | 46 | 342 | 1.7 | 7.0 | 0.00 | 0.00 | 0.00 | 79 | 1019.7 |
| 20260507221602 | 46 | 309 | 0.9 | 4.3 | 0.00 | 0.00 | 0.00 | 79 | 1019.7 |
| 20260507221100 | 46 | 321 | 1.7 | 4.3 | 0.00 | 0.00 | 0.00 | 79 | 1019.7 |
| 20260507220558 | 46 | 22 | 1.7 | 5.2 | 0.00 | 0.00 | 0.00 | 79 | 1019.6 |
| 20260507220059 | 46 | 15 | 2.6 | 6.1 | 0.00 | 0.00 | 0.00 | 79 | 1019.6 |
| 20260507215600 | 46 | 350 | 2.6 | 6.1 | 0.00 | 0.00 | 0.00 | 80 | 1019.7 |
| 20260507215059 | 46 | 314 | 1.7 | 3.5 | 0.00 | 0.00 | 0.00 | 80 | 1019.7 |
| 20260507214606 | 46 | 17 | 0.9 | 4.3 | 0.00 | 0.00 | 0.00 | 80 | 1019.7 |
| 20260507214100 | 46 | 39 | 0.0 | 4.3 | 0.00 | 0.00 | 0.00 | 80 | 1019.6 |
| 20260507213559 | 46 | 44 | 0.9 | 4.3 | 0.00 | 0.00 | 0.00 | 80 | 1019.5 |
| 20260507213107 | 46 | 43 | 2.6 | 4.3 | 0.00 | 0.00 | 0.00 | 80 | 1019.5 |
| 20260507212559 | 46 | 49 | 0.9 | 4.3 | 0.00 | 0.00 | 0.00 | 80 | 1019.5 |
| 20260507212100 | 46 | 20 | 1.7 | 7.0 | 0.00 | 0.00 | 0.00 | 80 | 1019.5 |
| 20260507211604 | 46 | 333 | 0.9 | 7.8 | 0.00 | 0.00 | 0.00 | 80 | 1019.5 |
| 20260507211100 | 46 | 336 | 0.9 | 7.8 | 0.00 | 0.00 | 0.00 | 80 | 1019.4 |
| 20260507210559 | 46 | 317 | 0.9 | 3.5 | 0.00 | 0.00 | 0.00 | 81 | 1019.4 |
| 20260507210100 | 46 | 294 | 0.0 | 3.5 | 0.00 | 0.00 | 0.00 | 81 | 1019.4 |
| 20260507205601 | 46 | 29 | 1.7 | 3.5 | 0.00 | 0.00 | 0.00 | 81 | 1019.4 |
| 20260507205104 | 46 | 56 | 0.0 | 4.3 | 0.00 | 0.00 | 0.00 | 81 | 1019.4 |
| 20260507204603 | 47 | 16 | 0.0 | 2.6 | 0.00 | 0.00 | 0.00 | 81 | 1019.4 |
| 20260507204503 | 47 | 17 | 0.0 | 2.6 | 0.00 | 0.00 | 0.00 | 81 | 1019.4 |
| 20260507204102 | 47 | 289 | 0.0 | 2.6 | 0.00 | 0.00 | 0.00 | 80 | 1019.4 |
| 20260507204001 | 47 | 319 | 0.0 | 2.6 | 0.00 | 0.00 | 0.00 | 80 | 1019.4 |
| 20260507203600 | 47 | 317 | 0.0 | 2.6 | 0.00 | 0.00 | 0.00 | 80 | 1019.4 |
| 20260507203101 | 47 | 17 | 0.9 | 4.3 | 0.00 | 0.00 | 0.00 | 80 | 1019.3 |
| 20260507202501 | 47 | 65 | 1.7 | 4.3 | 0.00 | 0.00 | 0.00 | 80 | 1019.2 |
| 20260507202101 | 47 | 78 | 1.7 | 3.5 | 0.00 | 0.00 | 0.00 | 80 | 1019.2 |
| 20260507201605 | 47 | 336 | 0.9 | 3.5 | 0.00 | 0.00 | 0.00 | 80 | 1019.1 |
| 20260507201501 | 47 | 39 | 0.9 | 3.5 | 0.00 | 0.00 | 0.00 | 80 | 1019.2 |
| 20260507201101 | 47 | 326 | 0.0 | 4.3 | 0.00 | 0.00 | 0.00 | 80 | 1019.1 |
| 20260507201001 | 47 | 76 | 0.9 | 4.3 | 0.00 | 0.00 | 0.00 | 80 | 1019.0 |
| 20260507200600 | 47 | 39 | 1.7 | 5.2 | 0.00 | 0.00 | 0.00 | 79 | 1019.0 |
| 20260507195601 | 47 | 38 | 0.9 | 4.3 | 0.00 | 0.00 | 0.00 | 79 | 1018.9 |
| 20260507195100 | 47 | 16 | 1.7 | 3.5 | 0.00 | 0.00 | 0.00 | 79 | 1018.9 |
| 20260507194608 | 47 | 50 | 0.9 | 7.8 | 0.00 | 0.00 | 0.00 | 78 | 1019.0 |
| 20260507194103 | 48 | 312 | 2.6 | 7.8 | 0.00 | 0.00 | 0.00 | 78 | 1018.9 |
| 20260507193602 | 48 | 320 | 0.9 | 7.8 | 0.00 | 0.00 | 0.00 | 78 | 1018.9 |
| 20260507193059 | 48 | 57 | 1.7 | 7.8 | 0.00 | 0.00 | 0.00 | 77 | 1018.9 |
| 20260507193001 | 48 | 19 | 2.6 | 8.7 | 0.00 | 0.00 | 0.00 | 77 | 1018.9 |
| 20260507192559 | 48 | 38 | 2.6 | 9.6 | 0.00 | 0.00 | 0.00 | 77 | 1018.9 |
| 20260507192059 | 48 | 13 | 4.3 | 9.6 | 0.00 | 0.00 | 0.00 | 77 | 1018.8 |
| 20260507191617 | 48 | 317 | 2.6 | 7.8 | 0.00 | 0.00 | 0.00 | 77 | 1018.6 |
| 20260507191059 | 48 | 41 | 1.7 | 5.2 | 0.00 | 0.00 | 0.00 | 77 | 1018.5 |
| 20260507190600 | 48 | 344 | 2.6 | 8.7 | 0.00 | 0.00 | 0.00 | 77 | 1018.4 |
| 20260507190100 | 48 | 42 | 4.3 | 8.7 | 0.00 | 0.00 | 0.00 | 77 | 1018.3 |
| 20260507190006 | 48 | 324 | 4.3 | 8.7 | 0.00 | 0.00 | 0.00 | 77 | 1018.3 |
| 20260507185559 | 48 | 38 | 2.6 | 8.7 | 0.00 | 0.00 | 0.00 | 77 | 1018.3 |
| 20260507185100 | 48 | 32 | 3.5 | 8.7 | 0.00 | 0.00 | 0.00 | 77 | 1018.3 |
| 20260507184501 | 48 | 42 | 3.5 | 8.7 | 0.00 | 0.00 | 0.00 | 77 | 1018.2 |
| 20260507184100 | 48 | 27 | 3.5 | 8.7 | 0.00 | 0.00 | 0.00 | 76 | 1018.3 |
| 20260507184001 | 48 | 39 | 2.6 | 8.7 | 0.00 | 0.00 | 0.00 | 76 | 1018.2 |
| 20260507183600 | 49 | 42 | 4.3 | 9.6 | 0.00 | 0.00 | 0.00 | 76 | 1018.3 |
| 20260507183104 | 49 | 49 | 5.2 | 10.4 | 0.00 | 0.00 | 0.00 | 76 | 1018.2 |
| 20260507182603 | 49 | 19 | 3.5 | 12.2 | 0.00 | 0.00 | 0.00 | 77 | 1018.1 |
| 20260507182100 | 49 | 38 | 4.3 | 12.2 | 0.00 | 0.00 | 0.00 | 77 | 1018.0 |
| 20260507182002 | 49 | 36 | 4.3 | 12.2 | 0.00 | 0.00 | 0.00 | 77 | 1017.9 |
| 20260507181600 | 49 | 307 | 4.3 | 12.2 | 0.00 | 0.00 | 0.00 | 78 | 1017.9 |
| 20260507181100 | 49 | 43 | 2.6 | 5.2 | 0.00 | 0.00 | 0.00 | 78 | 1017.8 |
| 20260507180601 | 49 | 341 | 2.6 | 5.2 | 0.00 | 0.00 | 0.00 | 77 | 1017.7 |
| 20260507180501 | 49 | 51 | 3.5 | 6.1 | 0.00 | 0.00 | 0.00 | 77 | 1017.6 |
| 20260507180106 | 49 | 61 | 1.7 | 6.1 | 0.00 | 0.00 | 0.00 | 77 | 1017.6 |
| 20260507175559 | 49 | 34 | 1.7 | 6.1 | 0.00 | 0.00 | 0.00 | 77 | 1017.6 |
| 20260507175100 | 49 | 32 | 3.5 | 7.8 | 0.00 | 0.00 | 0.00 | 77 | 1017.5 |
| 20260507174600 | 49 | 70 | 2.6 | 7.8 | 0.00 | 0.00 | 0.00 | 77 | 1017.4 |
| 20260507174103 | 49 | 331 | 2.6 | 7.8 | 0.00 | 0.00 | 0.00 | 76 | 1017.4 |
| 20260507173601 | 49 | 57 | 2.6 | 10.4 | 0.00 | 0.00 | 0.00 | 76 | 1017.4 |
| 20260507173059 | 50 | 30 | 6.1 | 10.4 | 0.00 | 0.00 | 0.00 | 76 | 1017.4 |
| 20260507172600 | 50 | 29 | 1.7 | 7.0 | 0.00 | 0.00 | 0.00 | 76 | 1017.4 |
| 20260507172100 | 50 | 23 | 3.5 | 7.8 | 0.00 | 0.00 | 0.00 | 76 | 1017.3 |
| 20260507171559 | 50 | 52 | 1.7 | 7.8 | 0.00 | 0.00 | 0.00 | 77 | 1017.3 |
| 20260507171059 | 50 | 41 | 2.6 | 7.8 | 0.00 | 0.00 | 0.00 | 77 | 1017.3 |
| 20260507170600 | 50 | 338 | 3.5 | 7.8 | 0.00 | 0.00 | 0.00 | 78 | 1017.2 |
| 20260507165559 | 50 | 49 | 0.9 | 5.2 | 0.00 | 0.00 | 0.00 | 78 | 1017.2 |
| 20260507165059 | 50 | 17 | 2.6 | 5.2 | 0.00 | 0.00 | 0.00 | 78 | 1017.0 |
| 20260507164631 | 50 | 322 | 0.9 | 4.3 | 0.00 | 0.00 | 0.00 | 78 | 1017.1 |
| 20260507164059 | 50 | 5 | 0.9 | 4.3 | 0.00 | 0.00 | 0.00 | 78 | 1017.1 |
| 20260507163600 | 50 | 336 | 1.7 | 4.3 | 0.00 | 0.00 | 0.00 | 77 | 1017.1 |
| 20260507163101 | 50 | 298 | 0.9 | 3.5 | 0.00 | 0.00 | 0.00 | 77 | 1017.1 |
| 20260507162600 | 50 | 347 | 0.0 | 5.2 | 0.00 | 0.00 | 0.00 | 77 | 1017.1 |
| 20260507162059 | 50 | 336 | 1.7 | 6.1 | 0.00 | 0.00 | 0.00 | 76 | 1017.1 |
| 20260507161607 | 51 | 304 | 0.9 | 5.2 | 0.00 | 0.00 | 0.00 | 76 | 1017.1 |
| 20260507161100 | 51 | 321 | 0.9 | 4.3 | 0.00 | 0.00 | 0.00 | 76 | 1017.1 |
| 20260507160559 | 51 | 25 | 1.7 | 3.5 | 0.00 | 0.00 | 0.00 | 76 | 1017.1 |
| 20260507160100 | 51 | 82 | 0.0 | 2.6 | 0.00 | 0.00 | 0.00 | 76 | 1017.1 |
| 20260507160003 | 51 | 71 | 0.0 | 2.6 | 0.00 | 0.00 | 0.00 | 76 | 1017.1 |
| 20260507155559 | 51 | 41 | 0.0 | 5.2 | 0.00 | 0.00 | 0.00 | 76 | 1017.1 |
| 20260507155059 | 51 | 22 | 0.9 | 5.2 | 0.00 | 0.00 | 0.00 | 76 | 1017.1 |
| 20260507154559 | 51 | 105 | 0.9 | 6.1 | 0.00 | 0.00 | 0.00 | 77 | 1017.0 |
| 20260507154059 | 51 | 41 | 1.7 | 6.1 | 0.00 | 0.00 | 0.00 | 77 | 1017.0 |
| 20260507153600 | 51 | 46 | 3.5 | 8.7 | 0.00 | 0.00 | 0.00 | 76 | 1016.9 |
| 20260507153059 | 51 | 68 | 3.5 | 8.7 | 0.00 | 0.00 | 0.00 | 77 | 1016.9 |
| 20260507152559 | 51 | 41 | 1.7 | 9.6 | 0.00 | 0.00 | 0.00 | 78 | 1016.8 |
| 20260507152103 | 51 | 28 | 3.5 | 10.4 | 0.00 | 0.00 | 0.00 | 78 | 1016.8 |
| 20260507151604 | 51 | 23 | 3.5 | 10.4 | 0.00 | 0.00 | 0.00 | 78 | 1016.7 |
| 20260507151059 | 51 | 19 | 3.5 | 9.6 | 0.00 | 0.00 | 0.00 | 77 | 1016.7 |
| 20260507150558 | 51 | 25 | 3.5 | 7.8 | 0.00 | 0.00 | 0.00 | 77 | 1016.7 |
| 20260507150059 | 51 | 17 | 3.5 | 7.8 | 0.00 | 0.00 | 0.00 | 76 | 1016.7 |
| 20260507150001 | 51 | 38 | 2.6 | 7.8 | 0.00 | 0.00 | 0.00 | 76 | 1016.7 |
| 20260507145601 | 51 | 51 | 4.3 | 9.6 | 0.00 | 0.00 | 0.00 | 75 | 1016.7 |
| 20260507145100 | 51 | 38 | 4.3 | 9.6 | 0.00 | 0.00 | 0.00 | 75 | 1016.7 |
| 20260507144604 | 51 | 61 | 0.9 | 7.8 | 0.00 | 0.00 | 0.00 | 75 | 1016.6 |
| 20260507144100 | 51 | 43 | 1.7 | 8.7 | 0.00 | 0.00 | 0.00 | 75 | 1016.5 |
| 20260507143559 | 51 | 346 | 2.6 | 7.8 | 0.00 | 0.00 | 0.00 | 75 | 1016.5 |
| 20260507143110 | 51 | 336 | 2.6 | 8.7 | 0.00 | 0.00 | 0.00 | 74 | 1016.5 |
| 20260507142600 | 52 | 350 | 3.5 | 7.8 | 0.00 | 0.00 | 0.00 | 74 | 1016.5 |
| 20260507142100 | 52 | 305 | 1.7 | 7.8 | 0.00 | 0.00 | 0.00 | 73 | 1016.6 |
| 20260507141624 | 52 | 53 | 2.6 | 9.6 | 0.00 | 0.00 | 0.00 | 73 | 1016.5 |
| 20260507141100 | 52 | 41 | 4.3 | 9.6 | 0.00 | 0.00 | 0.00 | 73 | 1016.5 |
| 20260507140602 | 52 | 20 | 2.6 | 7.0 | 0.00 | 0.00 | 0.00 | 73 | 1016.5 |
| 20260507140100 | 52 | 304 | 1.7 | 5.2 | 0.00 | 0.00 | 0.00 | 73 | 1016.6 |
| 20260507135600 | 52 | 350 | 2.6 | 7.8 | 0.00 | 0.00 | 0.00 | 73 | 1016.5 |
| 20260507135059 | 52 | 90 | 2.6 | 10.4 | 0.00 | 0.00 | 0.00 | 74 | 1016.5 |
| 20260507134612 | 52 | 349 | 1.7 | 6.1 | 0.00 | 0.00 | 0.00 | 74 | 1016.5 |
| 20260507134059 | 52 | 57 | 3.5 | 7.8 | 0.00 | 0.00 | 0.00 | 73 | 1016.4 |
| 20260507133559 | 52 | 329 | 2.6 | 7.8 | 0.00 | 0.00 | 0.00 | 74 | 1016.5 |
| 20260507133110 | 51 | 57 | 1.7 | 7.8 | 0.00 | 0.00 | 0.00 | 73 | 1016.5 |
| 20260507132559 | 51 | 39 | 3.5 | 7.8 | 0.00 | 0.00 | 0.00 | 74 | 1016.3 |
| 20260507132102 | 51 | 59 | 1.7 | 7.0 | 0.00 | 0.00 | 0.00 | 74 | 1016.3 |
| 20260507131613 | 51 | 246 | 1.7 | 7.0 | 0.00 | 0.00 | 0.00 | 74 | 1016.3 |
| 20260507131059 | 52 | 50 | 2.6 | 6.1 | 0.00 | 0.00 | 0.00 | 74 | 1016.3 |
| 20260507130559 | 52 | 28 | 3.5 | 7.8 | 0.00 | 0.00 | 0.00 | 72 | 1016.2 |
| 20260507130059 | 52 | 74 | 4.3 | 7.8 | 0.00 | 0.00 | 0.00 | 72 | 1016.2 |
| 20260507130000 | 52 | 57 | 4.3 | 7.8 | 0.00 | 0.00 | 0.00 | 72 | 1016.2 |
| 20260507125600 | 52 | 52 | 2.6 | 7.8 | 0.00 | 0.00 | 0.00 | 72 | 1016.1 |
| 20260507125100 | 52 | 27 | 4.3 | 7.8 | 0.00 | 0.00 | 0.00 | 73 | 1016.0 |
| 20260507124600 | 52 | 57 | 4.3 | 7.8 | 0.00 | 0.00 | 0.00 | 73 | 1016.0 |
| 20260507124059 | 52 | 53 | 2.6 | 7.8 | 0.00 | 0.00 | 0.00 | 74 | 1015.9 |
| 20260507123600 | 52 | 63 | 1.7 | 6.1 | 0.00 | 0.00 | 0.00 | 75 | 1016.0 |
| 20260507123117 | 51 | 11 | 1.7 | 6.1 | 0.00 | 0.00 | 0.00 | 76 | 1015.9 |
| 20260507122601 | 51 | 314 | 0.9 | 4.3 | 0.00 | 0.00 | 0.00 | 77 | 1015.8 |
| 20260507122059 | 50 | 315 | 0.9 | 5.2 | 0.00 | 0.00 | 0.00 | 78 | 1015.8 |
| 20260507121600 | 50 | 311 | 0.9 | 7.8 | 0.00 | 0.00 | 0.00 | 77 | 1015.9 |
| 20260507121100 | 50 | 11 | 1.7 | 8.7 | 0.00 | 0.00 | 0.00 | 77 | 1016.0 |
| 20260507120558 | 50 | 42 | 2.6 | 8.7 | 0.00 | 0.00 | 0.00 | 77 | 1015.9 |
| 20260507120059 | 50 | 29 | 3.5 | 8.7 | 0.00 | 0.00 | 0.00 | 76 | 1015.9 |
| 20260507115600 | 51 | 311 | 1.7 | 6.1 | 0.00 | 0.00 | 0.00 | 76 | 1015.8 |
| 20260507115059 | 51 | 27 | 0.9 | 6.1 | 0.00 | 0.00 | 0.00 | 76 | 1015.8 |
| 20260507114601 | 51 | 98 | 2.6 | 6.1 | 0.00 | 0.00 | 0.00 | 76 | 1015.8 |
| 20260507114059 | 50 | 48 | 1.7 | 5.2 | 0.00 | 0.00 | 0.00 | 76 | 1015.8 |
| 20260507113559 | 50 | 41 | 1.7 | 10.4 | 0.00 | 0.00 | 0.00 | 77 | 1015.8 |
| 20260507113059 | 50 | 61 | 4.3 | 10.4 | 0.00 | 0.00 | 0.00 | 77 | 1015.7 |
| 20260507112600 | 50 | 47 | 4.3 | 7.8 | 0.00 | 0.00 | 0.00 | 77 | 1015.7 |
| 20260507112100 | 50 | 18 | 1.7 | 7.8 | 0.00 | 0.00 | 0.00 | 77 | 1015.8 |
| 20260507111600 | 50 | 59 | 3.5 | 7.8 | 0.00 | 0.00 | 0.00 | 77 | 1015.8 |
| 20260507111100 | 50 | 34 | 1.7 | 5.2 | 0.00 | 0.00 | 0.00 | 77 | 1015.7 |
| 20260507110600 | 51 | 51 | 0.0 | 8.7 | 0.00 | 0.00 | 0.00 | 78 | 1015.6 |
| 20260507110002 | 50 | 52 | 4.3 | 8.7 | 0.00 | 0.00 | 0.00 | 79 | 1015.5 |
| 20260507105559 | 49 | 343 | 0.9 | 11.3 | 0.00 | 0.00 | 0.00 | 79 | 1015.5 |
| 20260507105500 | 49 | 32 | 0.9 | 11.3 | 0.00 | 0.00 | 0.00 | 79 | 1015.5 |
| 20260507105059 | 49 | 46 | 4.3 | 11.3 | 0.00 | 0.00 | 0.00 | 79 | 1015.5 |
| 20260507104605 | 49 | 22 | 4.3 | 8.7 | 0.00 | 0.00 | 0.00 | 79 | 1015.4 |
| 20260507104101 | 49 | 59 | 2.6 | 8.7 | 0.00 | 0.00 | 0.00 | 80 | 1015.4 |
| 20260507103602 | 49 | 19 | 2.6 | 7.8 | 0.00 | 0.00 | 0.00 | 79 | 1015.4 |
| 20260507103059 | 49 | 78 | 2.6 | 7.8 | 0.00 | 0.00 | 0.00 | 80 | 1015.4 |
| 20260507102600 | 49 | 30 | 2.6 | 5.2 | 0.00 | 0.00 | 0.00 | 80 | 1015.2 |
| 20260507102105 | 49 | 323 | 2.6 | 9.6 | 0.00 | 0.00 | 0.00 | 79 | 1015.2 |
| 20260507101602 | 49 | 327 | 4.3 | 9.6 | 0.00 | 0.00 | 0.00 | 78 | 1015.2 |
| 20260507101102 | 49 | 336 | 2.6 | 8.7 | 0.00 | 0.00 | 0.00 | 78 | 1015.1 |
| 20260507100559 | 50 | 33 | 3.5 | 13.0 | 0.00 | 0.00 | 0.00 | 78 | 1014.9 |
| 20260507100504 | 50 | 107 | 3.5 | 13.0 | 0.00 | 0.00 | 0.00 | 78 | 1014.9 |
| 20260507095559 | 49 | 71 | 3.5 | 10.4 | 0.00 | 0.00 | 0.00 | 79 | 1015.0 |
| 20260507095100 | 49 | 51 | 6.1 | 10.4 | 0.00 | 0.00 | 0.00 | 80 | 1014.9 |
| 20260507094600 | 49 | 22 | 6.1 | 10.4 | 0.00 | 0.00 | 0.00 | 80 | 1015.0 |
| 20260507094103 | 49 | 31 | 5.2 | 10.4 | 0.00 | 0.00 | 0.00 | 80 | 1015.0 |
| 20260507093559 | 48 | 329 | 0.9 | 8.7 | 0.00 | 0.00 | 0.00 | 81 | 1015.0 |
| 20260507093059 | 48 | 336 | 4.3 | 10.4 | 0.00 | 0.00 | 0.00 | 81 | 1015.0 |
| 20260507092559 | 48 | 42 | 4.3 | 10.4 | 0.00 | 0.00 | 0.00 | 81 | 1015.0 |
| 20260507092104 | 48 | 15 | 4.3 | 9.6 | 0.00 | 0.00 | 0.00 | 82 | 1014.8 |
| 20260507091600 | 48 | 57 | 2.6 | 7.8 | 0.00 | 0.00 | 0.00 | 82 | 1014.8 |
| 20260507091102 | 47 | 39 | 2.6 | 10.4 | 0.00 | 0.00 | 0.00 | 83 | 1014.8 |
| 20260507091002 | 47 | 329 | 2.6 | 10.4 | 0.00 | 0.00 | 0.00 | 83 | 1014.9 |
| 20260507090600 | 47 | 24 | 3.5 | 10.4 | 0.00 | 0.00 | 0.00 | 83 | 1014.9 |
| 20260507090105 | 47 | 306 | 3.5 | 6.1 | 0.00 | 0.00 | 0.00 | 83 | 1014.9 |
| 20260507085559 | 47 | 296 | 0.9 | 5.2 | 0.00 | 0.01 | 0.00 | 83 | 1014.8 |
| 20260507085100 | 47 | 10 | 2.6 | 8.7 | 0.00 | 0.01 | 0.00 | 84 | 1014.7 |
| 20260507084600 | 47 | 323 | 4.3 | 10.4 | 0.00 | 0.01 | 0.00 | 84 | 1014.6 |
| 20260507084059 | 47 | 36 | 2.6 | 10.4 | 0.00 | 0.01 | 0.00 | 84 | 1014.5 |
| 20260507083603 | 47 | 50 | 1.7 | 9.6 | 0.00 | 0.01 | 0.00 | 84 | 1014.4 |
| 20260507083100 | 46 | 52 | 3.5 | 9.6 | 0.00 | 0.01 | 0.00 | 84 | 1014.1 |
| 20260507082601 | 47 | 324 | 3.5 | 9.6 | 0.00 | 0.01 | 0.00 | 84 | 1014.1 |
| 20260507082100 | 47 | 323 | 2.6 | 9.6 | 0.00 | 0.01 | 0.00 | 84 | 1014.0 |
| 20260507081603 | 47 | 11 | 5.2 | 9.6 | 0.00 | 0.01 | 0.00 | 84 | 1013.9 |
| 20260507081104 | 47 | 23 | 1.7 | 7.8 | 0.00 | 0.01 | 0.00 | 85 | 1014.0 |
| 20260507080600 | 46 | 47 | 3.5 | 8.7 | 0.00 | 0.01 | 0.00 | 84 | 1013.9 |
| 20260507080120 | 47 | 36 | 3.5 | 8.7 | 0.00 | 0.01 | 0.00 | 84 | 1013.9 |
| 20260507080002 | 47 | 56 | 2.6 | 7.8 | 0.00 | 0.01 | 0.00 | 84 | 1013.9 |
| 20260507075602 | 47 | 339 | 3.5 | 7.8 | 0.00 | 0.01 | 0.00 | 84 | 1013.8 |
| 20260507075101 | 46 | 34 | 1.7 | 7.8 | 0.00 | 0.01 | 0.00 | 84 | 1013.8 |
| 20260507074600 | 47 | 32 | 2.6 | 9.6 | 0.00 | 0.01 | 0.00 | 84 | 1013.7 |
| 20260507074100 | 47 | 299 | 2.6 | 9.6 | 0.00 | 0.01 | 0.00 | 84 | 1013.7 |
| 20260507073603 | 47 | 36 | 1.7 | 9.6 | 0.00 | 0.01 | 0.00 | 84 | 1013.7 |
| 20260507073100 | 47 | 59 | 3.5 | 10.4 | 0.00 | 0.01 | 0.00 | 84 | 1013.7 |
| 20260507072602 | 46 | 57 | 4.3 | 10.4 | 0.00 | 0.01 | 0.00 | 84 | 1013.6 |
| 20260507072100 | 46 | 46 | 3.5 | 7.0 | 0.00 | 0.01 | 0.00 | 85 | 1013.6 |
| 20260507071605 | 46 | 317 | 1.7 | 7.8 | 0.00 | 0.01 | 0.00 | 85 | 1013.6 |
| 20260507071100 | 46 | 350 | 3.5 | 7.8 | 0.00 | 0.01 | 0.00 | 85 | 1013.5 |
| 20260507070559 | 46 | 29 | 3.5 | 7.0 | 0.00 | 0.01 | 0.00 | 85 | 1013.4 |
| 20260507070106 | 46 | 16 | 1.7 | 6.1 | 0.00 | 0.01 | 0.00 | 85 | 1013.4 |
| 20260507070002 | 46 | 336 | 1.7 | 8.7 | 0.00 | 0.01 | 0.00 | 85 | 1013.4 |
| 20260507065603 | 46 | 338 | 2.6 | 10.4 | 0.00 | 0.01 | 0.00 | 85 | 1013.3 |
| 20260507065501 | 46 | 10 | 2.6 | 10.4 | 0.00 | 0.01 | 0.00 | 85 | 1013.3 |
| 20260507065059 | 46 | 5 | 4.3 | 10.4 | 0.00 | 0.01 | 0.00 | 85 | 1013.4 |
| 20260507064634 | 46 | 45 | 2.6 | 9.6 | 0.00 | 0.01 | 0.00 | 85 | 1013.4 |
| 20260507064103 | 46 | 298 | 0.9 | 5.2 | 0.00 | 0.01 | 0.00 | 85 | 1013.4 |
| 20260507063600 | 46 | 55 | 2.6 | 8.7 | 0.00 | 0.01 | 0.00 | 85 | 1013.4 |
| 20260507063126 | 46 | 57 | 4.3 | 9.6 | 0.00 | 0.01 | 0.00 | 86 | 1013.3 |
| 20260507062600 | 46 | 54 | 4.3 | 9.6 | 0.00 | 0.01 | 0.00 | 86 | 1013.4 |
| 20260507062100 | 46 | 29 | 3.5 | 7.0 | 0.00 | 0.01 | 0.00 | 86 | 1013.3 |
| 20260507061600 | 46 | 44 | 2.6 | 7.8 | 0.00 | 0.01 | 0.00 | 86 | 1013.3 |
| 20260507061059 | 46 | 321 | 4.3 | 7.8 | 0.00 | 0.01 | 0.00 | 86 | 1013.3 |
| 20260507060559 | 46 | 317 | 2.6 | 8.7 | 0.00 | 0.01 | 0.00 | 86 | 1013.2 |
| 20260507060114 | 46 | 10 | 4.3 | 9.6 | 0.00 | 0.01 | 0.00 | 86 | 1013.2 |
| 20260507055558 | 46 | 38 | 3.5 | 10.4 | 0.00 | 0.01 | 0.00 | 86 | 1013.1 |
| 20260507055057 | 46 | 47 | 3.5 | 10.4 | 0.00 | 0.01 | 0.00 | 86 | 1013.2 |
| 20260507054607 | 45 | 57 | 1.7 | 8.7 | 0.00 | 0.01 | 0.00 | 86 | 1013.0 |
| 20260507054058 | 45 | 53 | 1.7 | 8.7 | 0.00 | 0.01 | 0.00 | 86 | 1012.9 |
| 20260507053558 | 46 | 63 | 0.9 | 8.7 | 0.00 | 0.01 | 0.00 | 86 | 1012.8 |
| 20260507053109 | 46 | 76 | 2.6 | 8.7 | 0.00 | 0.01 | 0.00 | 86 | 1012.6 |
| 20260507052557 | 45 | 39 | 3.5 | 8.7 | 0.00 | 0.01 | 0.00 | 86 | 1012.6 |
| 20260507052058 | 45 | 44 | 3.5 | 8.7 | 0.00 | 0.01 | 0.00 | 86 | 1012.6 |
| 20260507051608 | 45 | 11 | 4.3 | 9.6 | 0.00 | 0.01 | 0.00 | 86 | 1012.5 |
| 20260507051059 | 45 | 53 | 5.2 | 9.6 | 0.00 | 0.01 | 0.00 | 87 | 1012.3 |
| 20260507050600 | 45 | 88 | 3.5 | 11.3 | 0.00 | 0.01 | 0.00 | 87 | 1012.4 |
| 20260507050058 | 45 | 42 | 4.3 | 11.3 | 0.00 | 0.01 | 0.00 | 87 | 1012.4 |
| 20260507045559 | 45 | 315 | 2.6 | 7.8 | 0.00 | 0.01 | 0.00 | 87 | 1012.4 |
| 20260507045058 | 45 | 22 | 3.5 | 7.8 | 0.00 | 0.01 | 0.00 | 87 | 1012.3 |
| 20260507044600 | 45 | 16 | 1.7 | 5.2 | 0.00 | 0.01 | 0.00 | 87 | 1012.2 |
| 20260507044058 | 45 | 326 | 0.9 | 5.2 | 0.00 | 0.01 | 0.00 | 87 | 1012.1 |
| 20260507043559 | 45 | 65 | 2.6 | 6.1 | 0.00 | 0.01 | 0.00 | 87 | 1012.1 |
| 20260507043100 | 45 | 49 | 1.7 | 7.8 | 0.00 | 0.01 | 0.00 | 87 | 1012.0 |
| 20260507042559 | 45 | 43 | 1.7 | 7.8 | 0.00 | 0.01 | 0.00 | 88 | 1011.9 |
| 20260507042058 | 45 | 53 | 2.6 | 7.8 | 0.00 | 0.01 | 0.00 | 88 | 1012.0 |
| 20260507041559 | 45 | 333 | 2.6 | 7.8 | 0.00 | 0.01 | 0.00 | 88 | 1011.9 |
| 20260507041058 | 45 | 51 | 2.6 | 7.8 | 0.00 | 0.01 | 0.00 | 88 | 1012.0 |
| 20260507040559 | 44 | 73 | 1.7 | 7.0 | 0.00 | 0.01 | 0.00 | 88 | 1011.9 |
| 20260507040058 | 44 | 117 | 1.7 | 7.8 | 0.00 | 0.01 | 0.00 | 88 | 1011.9 |
| 20260507040001 | 44 | 52 | 3.5 | 7.8 | 0.00 | 0.01 | 0.00 | 88 | 1011.8 |
| 20260507035600 | 44 | 36 | 1.7 | 8.7 | 0.00 | 0.01 | 0.00 | 88 | 1011.8 |
| 20260507035059 | 44 | 23 | 2.6 | 8.7 | 0.00 | 0.01 | 0.00 | 88 | 1011.7 |
| 20260507034600 | 44 | 54 | 3.5 | 10.4 | 0.00 | 0.01 | 0.00 | 88 | 1011.7 |
| 20260507034059 | 44 | 51 | 4.3 | 10.4 | 0.00 | 0.01 | 0.00 | 88 | 1011.5 |
| 20260507033559 | 44 | 54 | 2.6 | 8.7 | 0.00 | 0.01 | 0.00 | 88 | 1011.5 |
| 20260507033059 | 44 | 54 | 3.5 | 8.7 | 0.00 | 0.01 | 0.00 | 88 | 1011.5 |
| 20260507032600 | 44 | 350 | 2.6 | 7.8 | 0.00 | 0.01 | 0.00 | 88 | 1011.5 |
| 20260507032101 | 44 | 38 | 2.6 | 7.8 | 0.00 | 0.01 | 0.00 | 88 | 1011.5 |
| 20260507031600 | 44 | 41 | 2.6 | 7.8 | 0.00 | 0.01 | 0.00 | 88 | 1011.4 |
| 20260507031059 | 44 | 327 | 2.6 | 7.8 | 0.00 | 0.01 | 0.00 | 88 | 1011.3 |
| 20260507030559 | 44 | 15 | 2.6 | 6.1 | 0.00 | 0.01 | 0.00 | 88 | 1011.2 |
| 20260507025558 | 44 | 5 | 2.6 | 8.7 | 0.00 | 0.01 | 0.00 | 88 | 1011.2 |
| 20260507025058 | 44 | 24 | 2.6 | 9.6 | 0.00 | 0.01 | 0.00 | 88 | 1011.1 |
| 20260507024558 | 44 | 66 | 4.3 | 12.2 | 0.00 | 0.01 | 0.00 | 88 | 1011.0 |
| 20260507024058 | 44 | 39 | 3.5 | 12.2 | 0.00 | 0.01 | 0.00 | 88 | 1011.0 |